Weather History for Hugo, OK

Change the Weather History Date:

Saturday, November 9, 2013

  Actual Average Record
Temperature  
Mean Temperature 61 °F -  
Max Temperature 66 °F 66 °F 69 °F (2014)
Min Temperature 56 °F 45 °F 36 °F (2014)
Degree Days  
Heating Degree Days 4    
Growing Degree Days 11 (Base 50)    
Moisture  
Dew Point 50 °F    
Average Humidity 71    
Maximum Humidity 90    
Minimum Humidity 51    
Precipitation  
Precipitation 0.00 in - - ()
Sea Level Pressure  
Sea Level Pressure 30.19 in    
Wind  
Wind Speed 4 mph (SSE)    
Max Wind Speed 8 mph    
Max Gust Speed -    
Visibility 10 miles    
Events Rain    
Averages and records for this station are not official NWS values.
T = Trace of Precipitation, MM = Missing Value Source: NWS Daily Summary

Daily Weather History Graph

Daily Weather History Graph

Search for Another Location

Airport:

Trip Planner

Search our weather history database for the weather conditions in past years. The results will help you decide how hot, cold, wet, or windy it might be!

Date:

Astronomy

Nov. 09, 2013 Rise Set
Actual Time 6:49 AM CST 5:22 PM CST
Civil Twilight 6:23 AM CST 5:48 PM CST
Nautical Twilight 5:53 AM CST 6:18 PM CST
Astronomical Twilight 5:23 AM CST 6:47 PM CST
Moon 12:29 PM CST (11/9) 11:49 PM CST (11/9)
Length of Visible Light 11h 25m
Length of Day
10h 32m
Waxing Crescent, 44% of the Moon is Illuminated
Nov 9
Waxing Crescent
Nov 9
First Quarter
Nov 17
Full
Nov 25
Last Quarter
Dec 2
New

Hourly Weather History & Observations

Time (CST) Temp. Dew Point Humidity Pressure Visibility Wind Dir Wind Speed Gust Speed Precip Events Conditions
12:15 AM 58.1 °F 47.7 °F 68% 30.15 in 10.0 mi Calm Calm - N/A   Overcast
12:35 AM 57.6 °F 48.4 °F 71% 30.15 in 10.0 mi Calm Calm - N/A   Scattered Clouds
12:55 AM 57.0 °F 48.6 °F 73% 30.15 in 10.0 mi SSE 3.5 mph - N/A   Mostly Cloudy
1:15 AM 57.6 °F 48.9 °F 73% 30.15 in 10.0 mi South 5.8 mph - N/A   Overcast
1:35 AM 57.7 °F 48.7 °F 72% 30.15 in 10.0 mi South 4.6 mph - N/A   Overcast
1:55 AM 57.6 °F 49.1 °F 73% 30.15 in 10.0 mi South 3.5 mph - N/A   Overcast
2:15 AM 57.6 °F 49.1 °F 73% 30.15 in 10.0 mi South 6.9 mph - N/A   Overcast
2:35 AM 57.6 °F 49.1 °F 73% 30.15 in 10.0 mi South 3.5 mph - N/A   Overcast
2:55 AM 57.4 °F 49.3 °F 74% 30.16 in 10.0 mi South 3.5 mph - N/A   Overcast
3:15 AM 57.2 °F 49.5 °F 75% 30.15 in 10.0 mi SSE 5.8 mph - N/A   Overcast
3:35 AM 57.2 °F 49.6 °F 76% 30.15 in 10.0 mi South 4.6 mph - N/A   Overcast
3:55 AM 57.2 °F 49.6 °F 76% 30.15 in 10.0 mi South 6.9 mph - N/A   Overcast
4:15 AM 57.2 °F 49.1 °F 74% 30.14 in 10.0 mi SSE 5.8 mph - N/A   Overcast
4:35 AM 57.2 °F 49.1 °F 74% 30.14 in 10.0 mi SSE 5.8 mph - N/A   Overcast
4:55 AM 57.2 °F 49.3 °F 75% 30.15 in 10.0 mi SSE 6.9 mph - N/A   Overcast
5:15 AM 56.8 °F 49.3 °F 76% 30.15 in 10.0 mi South 5.8 mph - N/A   Overcast
5:35 AM 56.7 °F 49.5 °F 77% 30.16 in 10.0 mi South 4.6 mph - N/A   Overcast
5:55 AM 56.8 °F 49.5 °F 76% 30.16 in 10.0 mi South 5.8 mph - N/A   Overcast
6:15 AM 56.7 °F 49.6 °F 77% 30.16 in 10.0 mi South 5.8 mph - N/A   Overcast
6:35 AM 56.8 °F 49.5 °F 76% 30.17 in 10.0 mi South 5.8 mph - N/A   Overcast
6:55 AM 56.8 °F 49.3 °F 76% 30.17 in 10.0 mi SSE 5.8 mph - N/A   Mostly Cloudy
7:15 AM 56.8 °F 49.5 °F 76% 30.18 in 10.0 mi SSE 3.5 mph - N/A   Clear
7:35 AM 56.8 °F 49.5 °F 76% 30.18 in 10.0 mi SSE 5.8 mph - N/A   Scattered Clouds
7:55 AM 57.2 °F 50.0 °F 77% 30.18 in 10.0 mi SSE 5.8 mph - N/A   Mostly Cloudy
8:15 AM 57.2 °F 50.7 °F 79% 30.19 in 10.0 mi SSE 4.6 mph - N/A Rain Light Rain
8:35 AM 57.2 °F 50.9 °F 79% 30.19 in 10.0 mi Calm Calm - N/A   Overcast
8:55 AM 57.2 °F 51.3 °F 81% 30.20 in 10.0 mi South 3.5 mph - N/A Rain Rain
9:15 AM 57.4 °F 52.5 °F 84% 30.20 in 10.0 mi Calm Calm - N/A   Overcast
9:35 AM 59.5 °F 52.2 °F 77% 30.20 in 10.0 mi SSE 4.6 mph - N/A   Mostly Cloudy
9:55 AM 60.8 °F 51.4 °F 71% 30.20 in 10.0 mi SSE 3.5 mph - N/A   Mostly Cloudy
10:15 AM 61.7 °F 50.0 °F 65% 30.20 in 10.0 mi SSE 5.8 mph - N/A   Overcast
10:35 AM 62.8 °F 50.9 °F 65% 30.20 in 10.0 mi SSE 5.8 mph - N/A   Overcast
10:55 AM 63.1 °F 49.3 °F 61% 30.20 in 10.0 mi South 8.1 mph - N/A   Overcast
11:15 AM 63.1 °F 48.7 °F 59% 30.20 in 10.0 mi SSE 6.9 mph - N/A   Overcast
11:35 AM 64.0 °F 48.7 °F 57% 30.19 in 10.0 mi South 6.9 mph - N/A   Overcast
11:55 AM 66.2 °F 49.6 °F 55% 30.18 in 10.0 mi SSE 6.9 mph - N/A   Overcast
12:15 PM 66.2 °F 48.2 °F 52% 30.18 in 10.0 mi South 6.9 mph - N/A   Overcast
12:35 PM 65.8 °F 48.0 °F 53% 30.18 in 10.0 mi South 8.1 mph - N/A   Overcast
12:55 PM 65.7 °F 48.6 °F 54% 30.17 in 10.0 mi SSE 6.9 mph - N/A   Mostly Cloudy
1:15 PM 65.5 °F 47.8 °F 53% 30.17 in 10.0 mi SSE 5.8 mph - N/A   Overcast
1:35 PM 66.0 °F 47.7 °F 52% 30.17 in 10.0 mi SSE 6.9 mph - N/A   Overcast
1:55 PM 66.0 °F 47.8 °F 52% 30.17 in 10.0 mi SE 4.6 mph - N/A   Overcast
2:15 PM 66.0 °F 47.8 °F 52% 30.16 in 10.0 mi SE 8.1 mph - N/A   Overcast
2:35 PM 65.5 °F 48.0 °F 53% 30.17 in 10.0 mi SE 6.9 mph - N/A   Overcast
2:55 PM 65.3 °F 46.9 °F 51% 30.17 in 10.0 mi SSE 5.8 mph - N/A   Overcast
3:15 PM 64.9 °F 47.7 °F 54% 30.17 in 10.0 mi SSE 6.9 mph - N/A   Overcast
3:35 PM 64.8 °F 47.5 °F 53% 30.17 in 10.0 mi SE 5.8 mph - N/A   Overcast
3:55 PM 64.9 °F 48.7 °F 56% 30.18 in 10.0 mi SSE 4.6 mph - N/A   Overcast
4:15 PM 64.4 °F 48.4 °F 56% 30.18 in 10.0 mi SE 8.1 mph - N/A   Overcast
4:35 PM 64.2 °F 48.2 °F 56% 30.18 in 10.0 mi SE 5.8 mph - N/A   Overcast
4:55 PM 63.7 °F 48.0 °F 57% 30.19 in 10.0 mi SE 6.9 mph - N/A   Overcast
5:15 PM 62.8 °F 48.0 °F 59% 30.19 in 10.0 mi SE 4.6 mph - N/A   Overcast
5:35 PM 62.6 °F 48.4 °F 60% 30.19 in 10.0 mi ESE 6.9 mph - N/A   Overcast
5:55 PM 62.1 °F 48.6 °F 61% 30.20 in 10.0 mi ESE 4.6 mph - N/A   Overcast
6:15 PM 61.7 °F 53.4 °F 74% 30.21 in 10.0 mi East 8.1 mph - N/A   Overcast
6:35 PM 61.0 °F 55.4 °F 82% 30.21 in 10.0 mi East 5.8 mph - N/A   Overcast
6:55 PM 60.4 °F 54.9 °F 82% 30.22 in 10.0 mi East 6.9 mph - N/A   Overcast
7:15 PM 60.1 °F 54.9 °F 83% 30.22 in 10.0 mi East 6.9 mph - N/A   Overcast
7:35 PM 59.9 °F 54.9 °F 83% 30.23 in 10.0 mi ESE 6.9 mph - N/A   Overcast
8:35 PM 59.0 °F 54.5 °F 85% 30.23 in 10.0 mi ESE 6.9 mph - N/A   Overcast
8:55 PM 58.6 °F 54.5 °F 86% 30.23 in 10.0 mi ESE 3.5 mph - N/A   Overcast
9:15 PM 58.5 °F 54.5 °F 87% 30.24 in 10.0 mi ESE 3.5 mph - N/A   Overcast
9:35 PM 58.5 °F 54.9 °F 88% 30.25 in 10.0 mi ESE 3.5 mph - N/A   Overcast
9:55 PM 58.6 °F 54.9 °F 87% 30.25 in 10.0 mi Calm Calm - N/A   Overcast
10:15 PM 58.6 °F 55.0 °F 88% 30.26 in 10.0 mi Calm Calm - N/A   Overcast
10:35 PM 58.6 °F 55.0 °F 88% 30.26 in 10.0 mi East 3.5 mph - N/A   Overcast
10:55 PM 58.6 °F 55.4 °F 89% 30.26 in 10.0 mi ESE 3.5 mph - N/A   Overcast
11:15 PM 58.6 °F 55.4 °F 89% 30.26 in 10.0 mi East 3.5 mph - N/A   Overcast
11:35 PM 58.6 °F 55.4 °F 89% 30.26 in 10.0 mi East 3.5 mph - N/A   Overcast
11:55 PM 58.5 °F 55.4 °F 90% 30.26 in 10.0 mi ESE 4.6 mph - N/A   Overcast